Weather History for KMKE - August, 2014

Change the Weather History Date:

Monday, August 11, 2014

  Actual Average Record
Temperature  
Mean Temperature 71 °F 71 °F  
Max Temperature 78 °F 79 °F 98 °F (1874)
Min Temperature 64 °F 64 °F 47 °F (1962)
Degree Days  
Heating Degree Days 0 0  
Month to date heating degree days 0 0  
Since 1 June heating degree days 95 95  
Since 1 July heating degree days 21 11  
Cooling Degree Days 6 7  
Month to date cooling degree days 48 77  
Year to date cooling degree days 283 449  
Since 1 June cooling degree days 265 419  
Growing Degree Days 20 (Base 50)    
Moisture  
Dew Point 64 °F    
Average Humidity 81    
Maximum Humidity 93    
Minimum Humidity 69    
Precipitation  
Precipitation 0.29 in 0.14 in 0.82 in (1887)
Month to date precipitation 1.94 1.44  
Year to date precipitation 21.54 21.65  
Snow  
Snow 0.00 in 0.00 in 0.00 in ()
Month to date snowfall 0.0 0.0  
Since 1 June snowfall 0.0 0.0  
Since 1 July snowfall 0.0 0.0  
Snow Depth 0.00 in    
Sea Level Pressure  
Sea Level Pressure 29.88 in    
Wind  
Wind Speed 5 mph (ENE)    
Max Wind Speed 13 mph    
Max Gust Speed 15 mph    
Visibility 8 miles    
Events Rain , Thunderstorm    
T = Trace of Precipitation, MM = Missing Value Source: NWS Daily Summary

Daily Weather History Graph

Daily Weather History Graph

Search for Another Location

Airport or City:

Trip Planner

Search our weather history database for the weather conditions in past years. The results will help you decide how hot, cold, wet, or windy it might be!

Date:

Astronomy

Aug. 11, 2014 Rise Set
Actual Time 5:53 AM CDT 7:59 PM CDT
Civil Twilight 5:22 AM CDT 8:30 PM CDT
Nautical Twilight 4:43 AM CDT 9:08 PM CDT
Astronomical Twilight 4:01 AM CDT 9:50 PM CDT
Moon 8:23 PM CDT (8/11) 7:01 AM CDT (8/11)
Length of Visible Light 15h 08m
Length of Day
14h 06m
Full, 99% of the Moon is Illuminated
Aug 11
Full
Aug 17
Last Quarter
Aug 25
New
Sep 2
First Quarter
Sep 8
Full

Hourly Weather History & Observations

Time (CDT) Temp. Dew Point Humidity Pressure Visibility Wind Dir Wind Speed Gust Speed Precip Events Conditions
12:52 AM 63.0 °F 61.0 °F 93% 30.00 in 4.0 mi North 6.9 mph - 0.70 in Rain , Thunderstorm Light Thunderstorms and Rain
1:15 AM 64.0 °F 61.0 °F 90% 29.99 in 5.0 mi NNW 3.5 mph - 0.04 in Rain Light Rain
1:52 AM 64.9 °F 63.0 °F 93% 29.98 in 6.0 mi Calm Calm - 0.09 in Rain Light Rain
2:52 AM 64.9 °F 63.0 °F 93% 29.96 in 3.0 mi Calm Calm - 0.12 in Rain Light Rain
3:52 AM 66.0 °F 64.0 °F 93% 29.94 in 10.0 mi Calm Calm - 0.04 in Rain Light Rain
4:16 AM 66.0 °F 63.0 °F 90% 29.95 in 9.0 mi East 4.6 mph - 0.00 in   Overcast
4:43 AM 66.0 °F 63.0 °F 90% 29.94 in 8.0 mi Calm Calm - 0.00 in   Overcast
4:52 AM 66.0 °F 63.0 °F 90% 29.94 in 7.0 mi NNW 3.5 mph - 0.00 in   Overcast
5:47 AM 66.2 °F 64.4 °F 94% 29.94 in 5.0 mi North 3.5 mph - 0.00 in   Overcast
5:52 AM 66.9 °F 64.0 °F 90% 29.94 in 5.0 mi North 4.6 mph - 0.00 in   Overcast
6:52 AM 68.0 °F 66.0 °F 93% 29.92 in 4.0 mi Calm Calm - N/A   Overcast
7:52 AM 69.1 °F 66.0 °F 90% 29.91 in 9.0 mi East 3.5 mph - N/A   Mostly Cloudy
8:37 AM 72.0 °F 66.9 °F 84% 29.91 in 10.0 mi Variable 4.6 mph - N/A   Mostly Cloudy
8:52 AM 71.1 °F 64.9 °F 81% 29.90 in 10.0 mi East 3.5 mph - N/A   Mostly Cloudy
8:59 AM 72.0 °F 66.0 °F 81% 29.91 in 10.0 mi Calm Calm - N/A   Mostly Cloudy
9:52 AM 73.9 °F 66.0 °F 76% 29.88 in 10.0 mi Calm Calm - N/A   Mostly Cloudy
10:17 AM 75.9 °F 66.9 °F 74% 29.88 in 10.0 mi Calm Calm - N/A   Mostly Cloudy
10:30 AM 75.9 °F 66.9 °F 74% 29.88 in 10.0 mi Variable 3.5 mph - N/A   Mostly Cloudy
10:52 AM 75.9 °F 64.9 °F 69% 29.87 in 10.0 mi Calm Calm - N/A   Mostly Cloudy
11:52 AM 75.9 °F 66.0 °F 71% 29.87 in 10.0 mi ENE 5.8 mph - N/A   Mostly Cloudy
12:52 PM 73.0 °F 64.0 °F 73% 29.88 in 10.0 mi East 8.1 mph - N/A   Overcast
1:50 PM 71.6 °F 66.2 °F 83% 29.88 in 10.0 mi ESE 10.4 mph - N/A   Mostly Cloudy
1:52 PM 72.0 °F 66.0 °F 81% 29.88 in 10.0 mi SE 10.4 mph - N/A   Mostly Cloudy
2:52 PM 72.0 °F 66.0 °F 81% 29.84 in 10.0 mi SE 9.2 mph - N/A   Mostly Cloudy
3:52 PM 71.1 °F 64.0 °F 78% 29.83 in 10.0 mi ESE 6.9 mph - 0.00 in   Mostly Cloudy
4:52 PM 73.9 °F 64.0 °F 71% 29.81 in 10.0 mi ESE 6.9 mph - N/A   Mostly Cloudy
5:52 PM 71.1 °F 64.0 °F 78% 29.80 in 10.0 mi ESE 4.6 mph - N/A   Mostly Cloudy
6:52 PM 70.0 °F 63.0 °F 78% 29.78 in 10.0 mi East 4.6 mph - N/A   Mostly Cloudy
7:52 PM 69.1 °F 63.0 °F 81% 29.78 in 10.0 mi Calm Calm - N/A   Mostly Cloudy
8:01 PM 69.1 °F 63.0 °F 81% 29.79 in 10.0 mi Calm Calm - N/A Thunderstorm Thunderstorm
8:52 PM 69.1 °F 64.0 °F 84% 29.81 in 6.0 mi West 8.1 mph - 0.03 in Rain Light Rain
9:52 PM 68.0 °F 64.9 °F 90% 29.78 in 10.0 mi ENE 4.6 mph - 0.01 in   Mostly Cloudy
10:52 PM 68.0 °F 64.9 °F 90% 29.78 in 8.0 mi North 6.9 mph - N/A   Mostly Cloudy
11:37 PM 68.0 °F 64.9 °F 90% 29.79 in 6.0 mi NNW 6.9 mph - N/A   Mostly Cloudy
11:52 PM 68.0 °F 64.0 °F 87% 29.78 in 5.0 mi NNW 8.1 mph - N/A   Mostly Cloudy